Location: Izdebno
(52.6670°N, 16.2170°E)
Time: 23:23:12
(UTC+01:00)

Transit 2A - Pass Details

Date: 21 September 2023
Orbit: 600 x 953 km, 66.7° (Epoch: 03 December)

Event Time Altitude Azimuth Distance (km) Brightness Sun altitude
Rises 20:04:11 0° 312° (NW) 3,096 10.4 -10.9°
Reaches altitude 10° 20:07:08 10° 296° (WNW) 2,111 9.8 -11.3°
Maximum altitude 20:10:28 19° 251° (WSW) 1,525 8.3 -11.8°
Drops below altitude 10° 20:13:38 10° 206° (SSW) 1,993 8.3 -12.3°
Sets 20:16:20 0° 188° (S) 2,862 8.9 -12.7°
